User: anonymous   Login
Location: Caltech
(34.1382°N, 118.1253°W)
Time: 14:48:43
(UTC-07:00)
Language:

NOSS 3-2 (A) - Orbit

View from above orbital plane
View from above orbital plane
View from above satellite
View from above satellite

Ground track
Ground track

The orbit data is extracted from the following two-line orbital elements,

1 28095U 03054A   17233.89120545 0.00000030  00000-0  40589-4 0    02
2 28095  63.4214 144.5069 0310000 358.1046   1.8954 13.41351883    00
Epoch (UTC): 21 August 2017 21:23:20
Eccentricity: 0.0310000
inclination: 63.4214°
perigee height: 872 km
apogee height: 1336 km
right ascension of ascending node: 144.5069°
argument of perigee: 358.1046°
revolutions per day: 13.41351883
mean anomaly at epoch: 1.8954°
orbit number at epoch: 0

The dashed part of the orbit path shows where the satellite is in the earth's shadow,  

DLR